Location: Champ-Richard
(44.2509°N, 6.6781°E)
Time: 17:13:25
(UTC+00:00)

Daily predictions for brighter satellites

Satellite Brightness Start Highest point End
(mag) Time Altitude Azimuth Time Altitude Azimuth Time Altitude Azimuth
Cosmos 2061 Rocket 4.1 18:15:11 10° N 18:21:39 79° E 18:28:01 10° SSE
Cosmos 2221 Rocket 4.2 18:23:14 10° N 18:27:18 35° ENE 18:31:21 10° SE
Cosmos 2016 Rocket 4.2 18:21:17 10° N 18:27:26 78° W 18:33:36 10° S
Cosmos 1869 Rocket 4.4 18:23:18 10° SSW 18:27:32 56° W 18:31:51 10° N
Okean-O 4.1 18:26:50 10° ESE 18:30:04 20° ENE 18:33:18 10° NNE
CZ-4B R/B 3.3 18:26:11 10° SSE 18:31:49 78° ENE 18:37:25 10° NNW
IGS 5A 3.5 18:31:54 10° SSE 18:35:56 58° ENE 18:40:00 10° N
NOSS 2-1 (E) 3.3 18:33:24 10° SSW 18:36:37 37° ESE 18:39:32 10° NE
USA 238 DEB 4.4 18:30:38 10° NW 18:37:57 66° WSW 18:45:41 10° SSE
USA 238 4.4 18:30:44 10° NW 18:38:03 66° WSW 18:45:47 10° SSE
Cosmos 1271 Rocket 2.6 18:35:58 10° S 18:39:38 60° E 18:43:17 10° NNE
Meteor 2-5 Rocket 4.5 18:36:09 10° N 18:41:32 35° ENE 18:46:56 10° SE
Cosmos 1302 Rocket 4.1 18:39:56 10° SSW 18:45:13 89° ESE 18:50:33 10° NNE
Cosmos 1447 Rocket 4.5 18:39:17 10° S 18:45:24 66° E 18:51:30 10° NNE
Cosmos 2297 Rocket 3.4 18:41:10 10° SW 18:46:36 48° WNW 18:52:05 10° NNE
JB-3 4.4 18:44:27 10° NNE 18:48:34 89° ESE 18:52:40 10° SSW
USA 281 3.4 18:46:39 10° NNE 18:53:16 83° WNW 18:59:49 10° SSW
Meteor 1-12 Rocket 4.4 18:47:48 10° S 18:53:23 55° E 18:58:54 10° NNE
MINOTAUR 4 R/B 3.9 18:50:05 10° NNE 18:53:31 89° ESE 18:56:55 10° SSW
BlueWalker 3 2.9 18:49:53 10° WSW 18:53:40 47° NNW 18:57:27 10° NE
Meteor 2-13 Rocket 4.4 18:53:11 10° S 18:59:19 80° E 19:05:30 10° N
Cosmos 2082 3.7 18:53:57 10° S 18:59:26 59° ESE 19:04:58 10° NNE
Landsat 7 3.8 18:55:55 10° SSE 19:00:33 64° ENE 19:05:14 10° N
Cosmos 1733 Rocket 3.3 18:56:18 10° SSW 19:00:36 72° W 19:04:56 10° N
USA 215 3.5 18:55:01 10° NE 19:01:33 75° NW 19:08:03 10° WSW
Lacrosse 5 rocket 3.8 18:59:33 10° WNW 19:02:33 18° NNW 19:05:27 10° NNE
Cosmos 1674 Rocket 3.4 18:58:37 10° N 19:02:56 69° E 19:07:13 10° SSE
Cosmos 2227 Rocket 3.0 18:58:18 10° SW 19:03:52 56° WNW 19:09:26 10° NNE
CZ-4C R/B 3.1 18:58:54 10° NNW 19:06:06 67° NE 19:13:27 15° SE
Cosmos 1025 Rocket 4.4 19:03:11 10° NNE 19:06:25 20° ENE 19:07:39 18° E
Meteor 1-22 Rocket 4.5 19:00:34 10° S 19:06:29 56° E 19:12:20 10° NNE
Cosmos 1378 Rocket 3.5 19:03:48 10° N 19:08:16 83° E 19:12:42 10° S
Cosmos 2219 3.6 19:03:43 10° SW 19:09:18 68° WNW 19:14:56 10° NNE
Cosmos 1470 2.6 19:06:19 10° S 19:10:11 70° E 19:14:04 10° NNE
Cosmos 1908 4.1 19:08:49 20° SE 19:10:22 26° E 19:13:32 10° NNE
Cosmos 1340 Rocket 3.9 19:08:44 10° NNE 19:11:54 23° ENE 19:12:48 22° E
CZ-4 R/B 2.7 19:11:15 10° SSW 19:14:53 39° W 19:18:38 10° NNW
RESURS DK-1 2.8 19:11:43 10° S 19:15:30 37° ESE 19:19:18 10° NE
Cosmos 1513 Rocket 4.5 19:09:25 10° N 19:15:32 65° E 19:21:41 10° SSE
Cosmos 1992 Rocket 3.9 19:11:48 10° SSW 19:16:59 80° ESE 19:22:13 10° NNE
SJ-6B 3.1 19:14:23 10° S 19:18:11 66° WSW 19:21:57 10° NNW
CSL-04 Rocket 3.7 19:12:40 10° SSE 19:18:12 79° ENE 19:23:44 10° NNW
Meteor 1-24 Rocket 3.9 19:14:45 10° N 19:20:46 66° ENE 19:26:41 10° SSE
ATLAS 2AS CENTAUR R/B 3.3 19:14:08 10° S 19:21:06 39° ESE 19:27:53 10° NE
SJ 16-02 1.5 19:17:44 10° N 19:22:04 54° ENE 19:24:29 24° SE
ISS -2.7 19:22:00 10° WNW 19:25:07 37° SW 19:26:39 23° SSE
SL-16 R/B 2.5 19:20:09 10° NNW 19:25:49 69° WSW 19:31:26 10° SSE
GPS 2-04 Rocket1 4.0 19:23:54 10° SW 19:26:35 20° S 19:27:02 20° SSE
Cosmos 1503 Rocket 4.4 19:22:41 10° N 19:27:47 45° ENE 19:30:19 27° ESE
Helios 1B 4.4 19:23:32 10° NNE 19:27:53 74° ESE 19:32:11 10° S
Timation 2 Rocket 4.5 19:22:38 10° SSE 19:28:03 34° ESE 19:33:42 10° NE
NOSS 2-1 (C) 3.9 19:25:07 10° WSW 19:28:19 44° NW 19:31:20 10° NNE
Resurs 1-3 3.8 19:24:53 10° S 19:29:14 74° WSW 19:33:38 10° NNW
USA 186 2.8 19:28:56 10° S 19:31:55 43° W 19:34:58 10° NNW
NOSS 2-1 (D) 4.2 19:29:50 10° WSW 19:33:05 40° NW 19:36:08 10° NNE
H-2A R/B 4.1 19:33:56 20° ENE 19:34:08 20° ENE 19:37:23 10° NNE
USA 267 3.3 19:31:34 22° SE 19:36:04 84° SW 19:42:39 10° NW
SAR-Lupe-3 4.4 19:34:36 32° SSE 19:36:08 79° ENE 19:39:44 10° N
Cosmos 2263 Rocket 2.0 19:31:16 10° SSW 19:36:49 80° ESE 19:42:24 10° NNE
Aureole 1 Rocket 4.3 19:34:03 10° N 19:36:42 19° NE 19:36:42 19° NE
Cosmos 1486 Rocket 3.9 19:31:58 10° NNW 19:37:18 87° ENE 19:40:45 22° SSE
Cosmos 1908 Rocket 3.6 19:33:54 10° S 19:38:22 84° W 19:42:50 10° N
Resurs 01 Rocket 1.6 19:36:37 30° SE 19:38:38 62° ENE 19:43:00 10° N
Cosmos 1758 3.4 19:37:31 35° SSE 19:38:47 51° E 19:42:36 10° NNE
MetOp-A 4.5 19:40:20 32° ESE 19:41:52 40° ENE 19:46:30 10° N
ATLAS 3B R/B 3.9 19:36:22 10° NNW 19:43:05 33° NE 19:47:05 21° E
GEOS 3 Rocket 3.8 19:43:40 10° NE 19:49:05 81° NW 19:54:28 10° SW
Cosmos 2034 Rocket 3.9 19:45:00 10° N 19:51:10 69° E 19:54:36 27° SSE
Cosmos 1703 3.8 19:49:04 10° N 19:52:15 39° NE 19:52:15 39° NE
Cosmos 1777 Rocket 4.3 19:49:43 10° N 19:54:47 48° ENE 19:55:53 42° E
Cosmos 220 Rocket 4.4 19:51:10 10° NNW 19:55:19 58° WSW 19:57:13 29° S
ADEOS Rocket 4.2 19:53:49 27° E 19:55:45 31° ENE 20:02:00 10° N
Cosmos 1300 Rocket 3.7 19:56:51 49° E 19:56:51 49° E 20:00:47 10° NNE
SL-4 R/B 3.7 19:53:58 10° WNW 19:58:12 32° N 20:00:42 19° NE
Okean O Rocket 4.2 19:55:29 10° SW 19:58:41 20° W 20:01:53 10° NW
Cosmos 1975 Rocket 3.1 19:54:21 10° N 19:58:46 61° E 19:59:17 57° ESE
IRS-1C Rocket 4.3 19:57:26 21° S 20:01:01 70° WSW 20:06:19 10° NNW
Meteor 2-15 Rocket 4.5 19:55:16 10° N 20:01:25 80° W 20:05:50 20° S
Cosmos 1953 4.4 20:07:37 16° NE 20:07:37 16° NE 20:08:41 10° NNE
Tsikada Rocket 3.9 20:02:35 31° SSE 20:05:29 61° E 20:11:33 10° NNE
Okean-O 3.7 20:03:03 17° SSW 20:06:12 43° W 20:10:27 10° NNW
Atlas Centaur 2 3.8 20:05:29 10° SW 20:06:37 13° SSW 20:06:37 13° SSW
Meteor 1-16 Rocket 4.2 20:08:47 50° SE 20:09:34 55° E 20:14:54 10° NNE
Ariane Rocket 3.1 20:11:03 51° E 20:11:20 51° ENE 20:16:15 10° N
Landsat 5 4.1 20:08:25 10° N 20:12:18 54° WNW 20:16:19 10° SSW
Cosmos 1782 Rocket 3.8 20:10:30 24° SSW 20:13:06 68° W 20:17:29 10° N
Meteor 2-19 Rocket 4.5 20:09:57 10° SSW 20:16:04 78° W 20:22:12 10° N
SPOT 1/Viking Rocket 4.2 20:13:21 21° SSW 20:16:38 51° W 20:21:44 10° NNW
SWAS 4.5 20:12:37 10° NNW 20:16:54 70° WSW 20:17:06 69° SW
Cosmos 2227 4.2 20:15:33 10° SSW 20:21:19 88° WNW 20:27:07 10° NNE
Spot 2 Rocket 4.2 20:22:06 38° NE 20:22:06 38° NE 20:26:18 10° N
Cosmos 1943 3.1 20:18:07 10° NNW 20:23:47 81° WSW 20:24:57 57° S
Cosmos 1354 Rocket 4.1 20:21:21 10° NNW 20:26:38 74° WSW 20:27:35 58° S
Cosmos 1603 3.5 20:24:43 10° NNW 20:30:28 89° ENE 20:31:09 71° SSE
BlueWalker 3 4.0 20:29:49 10° WNW 20:32:56 22° N 20:33:43 21° NNE
SPOT 5 3.1 20:35:23 59° NNE 20:35:23 59° NNE 20:39:45 10° N
Geosat 3.9 20:39:58 78° WSW 20:40:00 78° WSW 20:45:04 10° NNW
CARTOSAT-1 4.4 20:39:59 45° WSW 20:40:06 45° W 20:44:15 10° NNW
Lacrosse 5 rocket 3.9 20:40:37 10° NNW 20:42:45 14° N 20:43:37 13° NNE
MetOp-B 4.2 20:42:51 63° SW 20:43:26 69° WSW 20:48:48 10° NNW
Cosmos 1025 Rocket 4.3 20:40:11 10° NNW 20:44:06 35° W 20:44:32 35° WSW
NOSS 3-1 (C) 4.5 20:37:48 10° NNW 20:44:46 48° NE 20:46:35 42° ENE
CZ-4C R/B 4.2 20:47:49 10° NW 20:54:34 35° WSW 20:58:39 23° SSW
Terra 2.8 20:56:28 39° N 20:56:28 39° N 20:59:34 10° N
SJ 16-02 3.9 20:57:37 10° WNW 21:00:02 15° W 21:01:24 13° WSW
H-2A R/B 4.0 21:10:16 36° WNW 21:10:16 36° WNW 21:13:21 10° NNW
Cosmos 1634 Rocket 4.3 21:03:10 10° NNW 21:09:25 62° W 21:10:05 59° WSW
SME Rocket 4.1 21:11:00 77° NE 21:11:00 77° NE 21:16:17 10° NNW
ATLAS 2AS CENTAUR R/B 3.5 21:04:24 10° SW 21:11:54 56° NW 21:19:08 10° NNE
Resurs 01 Rocket 4.3 21:14:07 12° WSW 21:15:30 13° W 21:17:41 10° WNW
ERS-1 Rocket 3.9 21:19:39 45° NW 21:19:39 45° NW 21:23:16 10° NNW
Cosmos 1844 Rocket 3.8 21:28:04 38° N 21:28:04 38° N 21:31:31 10° NNE
ATLAS 3B R/B 2.9 21:26:57 10° NW 21:34:21 78° W 21:34:21 78° W
SL-4 R/B 4.5 21:33:56 10° NW 21:35:57 23° NW 21:35:57 23° NW
ADEOS Rocket 3.7 21:40:45 56° W 21:40:45 56° W 21:47:57 10° NNW
Cosmos 2344 4.1 21:39:19 10° NW 21:48:15 86° SW 21:49:32 74° SSE
NOSS 3-1 (A) 4.2 21:47:15 10° NNW 21:54:04 63° NNE 21:54:04 63° NNE
ATLAS CENTAUR R/B 4.4 22:15:27 10° NW 22:22:50 29° N 22:23:02 29° N
Cosmos 1833 Rocket 4.5 22:23:48 10° NNW 22:26:22 28° NNW 22:26:22 28° NNW
Cosmos 2082 Rocket 4.2 22:32:02 10° N 22:34:29 23° N 22:34:29 23° N
